Date String (YYYY-MM-DD hh:mm:ss) UTC,Instrument flags,Ambient pressure (hPa),Sample flow (lpm),Bypass flow (lpm),Sample temperature (°C),Ambient temperature (°C),ASC tube jacket temperature (°C),LED temperature (°C),Box temperature (°C),Sample RH (%),Span deviation,Mass concentration (μg/m³),Mass concentration (μg/m³),Mass concentration (μg/m³)
DateTimeUTC,F1_M11,P_M11,Q1_M11,Q2_M11,T1_M11,T2_M11,T3_M11,T4_M11,T5_M11,U1_M11,ZSPAN_M11,X2_M11,X0_M11,X1_M11
2021-10-28 02:00:00,,0825.6,4.99,0.00,27.6,26.7,00.0,36.8,29.4,10.0,0000.0,0001.41,0004.78,0000.82
2021-10-28 02:01:00,,0825.7,5.01,0.00,27.6,26.7,00.0,36.7,29.4,09.9,0000.0,0001.43,0006.20,0000.82
2021-10-28 02:02:00,,0825.7,5.00,0.00,27.6,26.7,00.0,36.7,29.3,09.9,0000.0,0001.45,0006.91,0000.83
2021-10-28 02:03:00,,0825.7,4.99,0.00,27.5,26.6,00.0,36.7,29.3,09.9,0000.0,0001.51,0007.05,0000.84
2021-10-28 02:04:00,,0825.6,4.99,0.00,27.5,26.6,00.0,36.7,29.2,09.9,0000.0,0001.55,0007.25,0000.85
2021-10-28 02:05:00,,0825.7,5.00,0.00,27.5,26.6,00.0,36.7,29.2,09.9,0000.0,0001.60,0007.75,0000.86
2021-10-28 02:06:00,,0825.7,5.00,0.00,27.4,26.5,00.0,36.7,29.2,10.0,0000.0,0001.55,0007.75,0000.85
2021-10-28 02:07:00,,0825.7,5.00,0.00,27.4,26.5,00.0,36.6,29.2,10.0,0000.0,0001.51,0008.09,0000.84
2021-10-28 02:08:00,,0825.8,5.01,0.00,27.4,26.5,00.0,36.6,29.2,10.0,0000.0,0001.50,0008.43,0000.85
2021-10-28 02:09:00,,0826.0,5.00,0.00,27.4,26.5,00.0,36.6,29.1,10.0,0000.0,0001.49,0008.50,0000.85
2021-10-28 02:10:00,,0825.9,4.98,0.00,27.4,26.5,00.0,36.6,29.2,10.0,0000.0,0001.44,0008.41,0000.86
2021-10-28 02:11:00,,0826.0,5.00,0.00,27.4,26.5,00.0,36.6,29.2,10.0,0000.0,0001.38,0007.45,0000.88
2021-10-28 02:12:00,,0825.7,5.01,0.00,27.4,26.5,00.0,36.6,29.2,10.0,0000.0,0001.40,0006.00,0000.89
2021-10-28 02:13:00,,0826.0,5.00,0.00,27.4,26.6,00.0,36.5,29.2,10.0,0000.0,0001.44,0006.74,0000.91
2021-10-28 02:14:00,,0826.1,5.00,0.00,27.4,26.6,00.0,36.5,29.2,10.0,0000.0,0001.44,0006.84,0000.93
2021-10-28 02:15:00,,0825.7,5.01,0.00,27.4,26.6,00.0,36.5,29.3,10.0,0000.0,0001.43,0006.71,0000.95
2021-10-28 02:16:00,,0825.7,4.99,0.00,27.4,26.6,00.0,36.5,29.3,10.0,0000.0,0001.37,0005.71,0000.96
2021-10-28 02:17:00,,0825.7,5.01,0.00,27.5,26.7,00.0,36.5,29.3,09.9,0000.0,0001.44,0006.79,0000.98
2021-10-28 02:18:00,,0825.9,4.99,0.00,27.5,26.7,00.0,36.5,29.3,09.9,0000.0,0001.47,0006.47,0001.00
2021-10-28 02:19:00,,0826.2,5.00,0.00,27.5,26.7,00.0,36.5,29.3,09.9,0000.0,0001.47,0005.84,0001.01
2021-10-28 02:20:00,,0825.9,4.99,0.00,27.5,26.7,00.0,36.5,29.3,09.9,0000.0,0001.48,0006.23,0001.02
2021-10-28 02:21:00,,0825.8,5.00,0.00,27.5,26.8,00.0,36.5,29.4,09.9,0000.0,0001.51,0006.40,0001.03
2021-10-28 02:22:00,,0825.9,5.00,0.00,27.5,26.8,00.0,36.5,29.4,09.9,0000.0,0001.51,0007.75,0001.04
2021-10-28 02:23:00,,0825.8,5.00,0.00,27.6,26.8,00.0,36.6,29.4,09.8,0000.0,0001.50,0007.82,0001.04
2021-10-28 02:24:00,,0825.8,5.00,0.00,27.6,26.8,00.0,36.6,29.4,09.9,0000.0,0001.48,0006.82,0001.04
2021-10-28 02:25:00,,0825.8,4.99,0.00,27.6,26.8,00.0,36.6,29.4,09.9,0000.0,0001.48,0007.02,0001.04
2021-10-28 02:26:00,,0825.9,5.00,0.00,27.6,26.8,00.0,36.6,29.4,09.9,0000.0,0001.51,0007.33,0001.03
2021-10-28 02:27:00,,0826.0,5.01,0.00,27.6,26.8,00.0,36.6,29.4,09.9,0000.0,0001.52,0007.45,0001.02
2021-10-28 02:28:00,,0826.0,5.00,0.00,27.6,26.8,00.0,36.6,29.4,09.9,0000.0,0001.48,0006.50,0001.02
2021-10-28 02:29:00,,0826.1,4.99,0.00,27.6,26.8,00.0,36.6,29.4,09.9,0000.0,0001.48,0006.20,0001.01
2021-10-28 02:30:00,,0826.2,4.99,0.00,27.6,26.8,00.0,36.6,29.4,09.9,0000.0,0001.46,0006.09,0001.00
2021-10-28 02:31:00,,0826.2,5.00,0.00,27.7,26.8,00.0,36.6,29.4,09.9,0000.0,0001.45,0005.41,0001.00
2021-10-28 02:32:00,,0826.0,5.01,0.00,27.7,26.8,00.0,36.6,29.4,09.9,0000.0,0001.42,0005.40,0000.98
2021-10-28 02:33:00,,0825.8,5.00,0.00,27.7,26.8,00.0,36.6,29.5,09.9,0000.0,0001.40,0003.60,0000.96
2021-10-28 02:34:00,,0826.1,5.01,0.00,27.6,26.8,00.0,36.7,29.4,09.9,0000.0,0001.37,0003.35,0000.95
2021-10-28 02:35:00,,0825.9,5.00,0.00,27.6,26.7,00.0,36.7,29.4,10.0,0000.0,0001.38,0003.80,0000.95
2021-10-28 02:36:00,,0826.2,5.01,0.00,27.6,26.7,00.0,36.6,29.4,10.0,0000.0,0001.41,0005.44,0000.95
2021-10-28 02:37:00,,0826.2,4.99,0.00,27.6,26.7,00.0,36.6,29.4,10.0,0000.0,0001.36,0005.30,0000.95
2021-10-28 02:38:00,,0826.2,4.99,0.00,27.6,26.7,00.0,36.6,29.4,10.0,0000.0,0001.37,0005.26,0000.95
2021-10-28 02:39:00,,0826.2,5.00,0.00,27.6,26.7,00.0,36.6,29.4,10.0,0000.0,0001.38,0005.29,0000.95
2021-10-28 02:40:00,,0826.2,4.99,0.00,27.6,26.7,00.0,36.6,29.4,10.0,0000.0,0001.36,0005.25,0000.95
2021-10-28 02:41:00,,0826.0,5.00,0.00,27.6,26.7,00.0,36.6,29.4,10.0,0000.0,0001.36,0005.28,0000.95
2021-10-28 02:42:00,,0826.0,5.00,0.00,27.6,26.7,00.0,36.6,29.3,10.0,0000.0,0001.36,0005.32,0000.94
2021-10-28 02:43:00,,0826.0,5.00,0.00,27.6,26.6,00.0,36.6,29.3,10.0,0000.0,0001.38,0005.26,0000.94
2021-10-28 02:44:00,,0826.1,4.99,0.00,27.5,26.7,00.0,36.6,29.3,10.0,0000.0,0001.39,0005.86,0000.94
2021-10-28 02:45:00,,0826.2,5.00,0.00,27.5,26.6,00.0,36.6,29.3,10.0,0000.0,0001.38,0005.98,0000.94
2021-10-28 02:46:00,,0826.2,5.00,0.00,27.5,26.6,00.0,36.6,29.3,10.0,0000.0,0001.34,0005.35,0000.93
2021-10-28 02:47:00,,0826.2,4.99,0.00,27.5,26.6,00.0,36.6,29.3,10.1,0000.0,0001.26,0003.31,0000.92
2021-10-28 02:48:00,,0826.2,5.01,0.00,27.5,26.6,00.0,36.6,29.2,10.1,0000.0,0001.29,0003.19,0000.93
2021-10-28 02:49:00,,0826.1,5.01,0.00,27.4,26.6,00.0,36.6,29.2,10.1,0000.0,0001.26,0003.09,0000.93
2021-10-28 02:50:00,,0826.2,5.00,0.00,27.4,26.6,00.0,36.6,29.2,10.1,0000.0,0001.25,0002.92,0000.94
2021-10-28 02:51:00,,0826.2,4.99,0.00,27.4,26.5,00.0,36.5,29.2,10.2,0000.0,0001.29,0002.97,0000.95
2021-10-28 02:52:00,,0826.2,5.01,0.00,27.4,26.4,00.0,36.5,29.2,10.2,0000.0,0001.31,0003.06,0000.96
2021-10-28 02:53:00,,0826.2,4.99,0.00,27.4,26.5,00.0,36.5,29.2,10.2,0000.0,0001.33,0003.31,0000.96
2021-10-28 02:54:00,,0826.2,5.00,0.00,27.4,26.5,00.0,36.5,29.2,10.2,0000.0,0001.35,0003.38,0000.99
2021-10-28 02:55:00,,0826.2,5.01,0.00,27.4,26.5,00.0,36.5,29.2,10.2,0000.0,0001.38,0002.94,0001.02
2021-10-28 02:56:00,,0826.2,5.01,0.00,27.4,26.4,00.0,36.5,29.2,10.2,0000.0,0001.44,0002.76,0001.05
2021-10-28 02:57:00,,0826.3,5.00,0.00,27.4,26.4,00.0,36.5,29.2,10.2,0000.0,0001.50,0002.87,0001.09
2021-10-28 02:58:00,,0826.2,4.99,0.00,27.4,26.4,00.0,36.5,29.2,10.2,0000.0,0001.55,0002.96,0001.13
2021-10-28 02:59:00,,0826.2,5.01,0.00,27.4,26.5,00.0,36.5,29.1,10.2,0000.0,0001.60,0003.01,0001.18
